Voltar ao catálogo

STARLINK-35535

AtivoComunicaçõesVLEO
NORAD 66342·PAYLOAD·🇺🇸 United States

Lançado Nov 6, 2025 de Cape Canaveral Space Force Station

Loading…

Próximas Passagens (próximas 24 horas)

TLE

AtualizadoSource: CelesTrak SupGP

Época: Sep 14, 2026, 22:56 UTC

1 66342C 25253Z   26257.95604167  .00008538  00000+0  30922-3 0  2577
2 66342  42.9999 223.7193 0001415 261.7991 301.2819 15.27575869    18

Acompanhe STARLINK-35535 em tempo real com AllMySat

Download on the App Store